Dewpoint
47 47 47 47 47 47 47 47 47 47 46 46 46 46 46 46 45 45 45 44 44 44 44 44 44 45 47 45 42 42 42 42 41 42 42 42 43 44 46 48 50 51 55 58 61 62 61 61 61 62 62 61 61 61 62 62 62 62 61 61 61 60 59 58 56 56 57 59 60 60 62 60 59 57 56 56 57 58 57 57 57 56 56 55 55
47 47 47 46 46 46 46 47 47 47 46 46 46 46 46 45 45 45 44 44 44 44 44 44 43 43 45 45 42 41 41 41 41 41 41 41 41 42 43 43 45 47 51 53 56 60 61 61 61 61 62 61 61 61 62 61 61 61 61 61 61 60 61 59 57 57 56 57 59 60 60 61 58 57 56 55 56 57 56 56 55 55 55 55 54
47 47 46 46 45 45 45 45 46 46 46 46 45 46 46 46 45 44 44 44 44 44 43 43 43 43 43 45 42 41 41 41 41 40 40 40 40 41 41 41 42 44 47 50 52 55 58 60 61 61 61 61 61 61 61 61 61 60 60 61 61 61 61 60 59 57 57 57 59 59 59 60 59 57 57 55 56 57 55 54 54 54 54 54 54
46 46 45 45 45 44 44 44 44 44 44 44 45 45 46 46 46 44 44 44 43 44 44 43 42 42 42 43 43 41 40 40 40 40 40 40 40 40 40 41 41 42 44 46 50 52 55 58 60 61 61 61 61 61 62 62 61 61 60 61 61 61 60 60 60 59 58 57 58 58 59 59 60 58 57 57 55 56 55 54 53 53 53 54 54
45 45 44 44 44 44 43 43 42 43 43 43 43 44 44 45 46 45 44 44 44 43 43 43 42 42 43 42 41 40 39 39 39 39 39 39 40 40 40 41 41 41 42 44 48 50 53 56 59 60 61 60 60 60 61 61 61 61 61 61 61 61 61 60 60 60 59 58 58 59 59 60 60 58 56 56 56 55 55 54 52 52 52 53 53
45 45 44 44 43 43 43 43 42 42 42 42 42 42 43 43 43 44 44 44 44 44 43 42 43 41 42 42 40 39 39 39 39 39 39 39 39 40 40 41 41 42 42 43 44 47 51 54 58 60 60 60 60 60 60 60 60 61 60 61 61 60 60 60 60 59 59 59 58 57 59 58 59 58 55 55 55 54 54 55 54 52 52 52 53
44 43 44 44 43 43 43 43 43 42 42 42 43 42 42 42 42 43 43 42 42 43 43 42 42 41 42 41 41 40 39 39 39 39 39 39 39 39 40 41 41 42 43 43 44 46 49 53 56 59 60 60 60 60 60 60 60 60 60 61 61 60 60 60 60 60 59 59 58 58 58 59 58 57 55 55 53 51 54 53 52 52 51 51 52
41 42 42 42 42 43 43 43 43 43 43 42 42 42 42 41 41 42 42 41 41 41 42 42 41 41 41 41 41 41 39 39 39 39 39 39 39 39 40 41 42 42 43 44 45 47 50 54 56 58 59 60 60 60 60 60 60 59 60 60 60 59 59 59 59 59 59 58 58 56 57 58 58 58 55 55 54 55 53 51 51 51 50 50 51
39 40 40 40 40 41 42 43 43 42 42 41 41 42 42 42 41 41 41 41 42 41 41 41 40 40 40 40 40 40 39 39 39 39 39 39 39 40 40 41 42 43 44 46 47 49 52 54 56 57 58 58 56 56 57 58 60 59 59 60 59 59 59 58 58 58 58 57 57 57 57 57 57 57 54 53 53 52 52 50 51 52 52 49 49
38 38 39 40 40 39 38 39 40 41 41 41 40 41 41 42 41 40 40 40 40 41 40 40 40 40 39 39 39 40 39 39 41 40 40 39 39 40 40 41 41 42 43 44 47 47 48 48 50 51 51 54 54 52 50 51 54 59 60 60 59 59 59 58 58 58 57 57 56 56 55 56 56 57 55 53 52 53 53 50 51 52 53 51 49
38 37 37 38 38 38 36 36 36 36 38 39 40 40 40 41 41 40 40 40 40 40 39 39 39 39 39 39 38 39 39 39 38 38 38 38 40 40 40 40 41 41 42 43 44 45 45 46 47 48 49 50 51 52 50 48 48 49 51 55 57 60 59 58 58 58 57 57 57 56 56 55 56 57 56 54 51 52 52 50 49 50 51 50 49
37 37 37 37 37 36 35 34 34 34 35 35 37 38 39 40 41 40 39 39 39 39 39 39 39 39 39 38 38 39 38 39 37 38 38 38 39 40 39 40 41 40 41 41 43 43 43 44 45 46 46 46 47 51 52 51 47 47 47 47 48 50 52 57 57 57 57 56 56 57 56 56 56 57 57 56 53 52 51 50 50 50 50 50 50
36 36 37 37 37 36 34 33 33 33 34 35 35 36 37 38 39 40 39 39 39 39 39 39 39 39 39 38 38 38 38 39 37 38 37 37 38 39 39 40 40 40 40 40 41 41 42 43 43 44 43 45 47 45 44 44 47 49 47 47 47 47 46 47 50 58 59 58 57 57 57 57 56 56 57 56 54 52 51 49 50 51 52 50 51
35 35 36 36 37 36 34 33 32 33 33 34 34 35 36 36 37 40 40 38 38 38 38 38 38 38 39 38 38 38 38 39 37 37 37 37 37 38 39 39 40 39 39 39 40 41 42 42 42 42 41 41 43 42 41 41 43 47 53 52 53 53 48 46 45 47 53 58 58 57 58 58 57 57 57 56 54 53 52 52 49 48 49 50 49
36 36 36 36 36 36 35 33 33 32 33 33 33 34 34 35 36 37 38 38 38 37 37 37 38 38 38 38 38 37 38 38 37 37 37 37 37 38 38 39 39 39 38 39 39 39 40 42 42 41 40 40 42 40 39 39 41 45 51 56 54 55 56 55 53 53 54 58 59 59 59 59 59 58 58 58 56 55 54 52 51 48 48 50 48
35 36 36 36 36 36 35 33 33 32 32 32 33 33 33 34 34 35 36 36 38 37 37 37 37 37 37 37 37 36 37 37 37 37 37 37 38 38 37 37 38 39 38 38 38 38 39 40 41 39 38 39 40 37 38 39 41 46 50 56 57 56 56 54 51 51 55 57 59 59 59 59 54 57 57 58 58 57 56 56 54 52 49 49 49
35 36 35 36 36 35 35 34 34 33 33 33 32 33 33 34 35 36 34 34 35 37 37 36 36 37 37 36 36 35 36 37 36 36 37 37 38 37 37 36 37 38 38 38 37 37 38 40 40 39 38 38 38 36 36 38 42 46 50 54 57 56 56 56 50 47 47 48 50 51 51 51 49 48 48 50 54 56 57 55 53 52 51 49 49
35 35 34 35 35 35 35 34 34 34 33 33 33 33 33 33 34 36 34 33 33 35 37 35 34 35 36 35 36 35 35 36 36 36 36 37 38 37 36 36 36 37 37 37 37 37 38 42 42 38 37 37 37 36 36 38 40 43 47 50 55 56 56 56 55 52 46 46 47 48 47 47 47 46 47 48 48 53 57 55 55 54 51 48 49
34 34 34 35 35 35 35 34 33 33 33 34 34 33 33 34 34 33 33 33 33 33 37 35 34 33 34 35 37 35 35 36 36 35 36 36 37 37 37 36 36 36 37 36 36 37 37 39 40 39 38 37 36 36 36 37 39 41 44 47 51 55 56 55 54 53 53 52 52 52 52 50 51 52 53 48 48 52 58 57 56 53 52 51 49
34 34 35 35 36 36 36 36 35 33 33 33 34 34 35 33 33 32 32 32 31 32 32 34 33 33 33 33 34 34 34 34 36 35 36 36 36 37 37 36 36 36 36 36 36 36 37 37 38 37 36 35 36 36 36 36 38 40 41 43 45 51 55 55 54 54 53 53 54 54 54 55 56 54 55 52 52 55 57 58 56 55 53 52 51
35 35 35 35 35 35 35 34 34 34 34 33 34 34 34 33 33 33 31 31 31 31 31 32 33 33 32 32 33 33 34 34 34 35 35 36 36 36 37 37 36 36 36 36 36 36 36 37 37 37 35 35 36 36 36 36 37 40 40 39 40 43 42 46 53 50 53 52 52 53 52 53 54 55 55 54 54 55 56 55 56 56 55 53 52
34 35 35 35 35 35 35 35 36 36 35 34 32 32 33 33 33 32 31 31 30 30 30 31 31 32 32 32 33 32 34 36 34 35 35 35 35 36 36 36 37 37 36 36 36 36 36 36 36 36 35 35 35 36 36 36 36 40 38 36 37 38 43 51 52 52 52 51 51 50 50 50 50 52 53 54 54 55 57 56 55 55 55 55 54
34 35 35 36 36 35 35 36 36 37 35 34 33 32 32 32 32 32 31 31 30 30 30 30 30 30 31 31 31 32 32 33 35 34 35 35 35 35 36 36 36 37 36 35 36 36 36 35 36 36 35 35 35 36 36 35 37 37 36 36 37 39 46 52 50 51 50 49 48 47 47 47 47 47 47 47 48 49 50 51 51 51 50 49 50
33 34 34 34 35 36 36 36 35 34 36 35 34 32 32 32 32 32 31 31 30 30 30 30 30 30 30 30 31 31 32 32 34 35 35 35 35 35 35 36 36 36 36 35 35 35 35 35 35 35 35 35 35 35 35 35 36 35 36 36 37 39 44 46 46 46 44 44 44 44 44 44 45 44 44 45 46 47 47 48 48 48 48 48 48
32 32 33 33 34 35 35 34 34 34 34 34 33 33 32 31 31 31 31 30 30 30 30 31 30 30 30 30 30 31 32 32 32 34 35 35 35 35 35 36 36 36 35 35 35 35 35 35 34 35 35 35 35 35 36 36 35 35 36 36 39 39 40 41 43 43 42 42 42 42 42 43 43 44 44 45 44 45 45 45 46 46 46 46 46
32 31 32 33 32 34 34 34 35 35 35 35 34 32 32 32 32 31 30 30 30 30 31 31 31 31 30 30 30 31 32 32 33 34 35 36 35 35 35 36 37 36 36 35 35 35 35 35 34 35 35 35 36 35 36 36 35 35 36 37 39 39 38 39 39 40 40 40 40 41 41 42 43 43 43 44 44 44 44 45 45 45 46 46 45
34 32 31 32 32 33 34 33 34 34 34 35 35 34 31 31 31 31 30 29 30 31 31 31 31 31 30 30 30 31 32 33 33 34 34 34 34 35 35 36 37 36 36 35 35 35 35 35 34 34 35 34 34 35 35 35 36 36 36 37 37 38 38 38 38 38 38 39 40 41 41 42 43 42 42 42 42 42 43 43 44 44 44 44 43
32 31 31 32 33 32 33 34 35 33 33 33 33 32 31 31 31 30 29 29 30 30 31 31 31 31 31 30 30 31 32 32 33 34 34 35 34 34 35 36 36 35 35 35 35 35 34 34 34 34 34 34 34 34 34 35 35 35 35 36 36 36 37 37 37 38 38 39 39 40 40 41 41 41 41 41 42 42 42 42 42 42 43 43 41
32 31 31 31 32 33 32 34 35 34 33 33 32 32 31 31 31 30 30 30 30 30 31 31 32 30 30 31 30 30 31 32 33 34 35 34 34 35 35 36 36 36 36 35 35 34 33 33 33 33 34 33 33 33 34 34 34 34 34 34 35 35 35 35 35 35 37 37 37 37 37 39 39 40 41 40 40 41 42 42 41 42 42 42 40
31 31 32 32 32 32 32 32 35 35 32 32 32 31 32 35 32 30 30 33 34 34 33 30 31 31 31 31 31 30 31 33 34 34 34 34 34 34 34 34 35 35 35 35 35 33 33 32 33 33 33 33 33 33 33 33 33 33 34 33 34 34 34 34 34 34 34 35 36 36 37 37 37 38 39 38 39 40 40 39 41 41 40 39 39
31 31 31 32 32 32 31 30 31 32 34 32 32 31 30 30 33 34 34 34 34 34 34 34 34 34 33 30 32 33 33 34 34 34 34 34 34 34 34 34 34 35 35 34 33 32 32 32 32 32 33 33 32 32 33 32 32 32 33 33 33 33 33 33 33 33 33 33 33 34 34 36 36 36 37 37 37 39 39 39 40 41 40 39 39
28 28 30 30 32 31 31 30 30 31 30 32 32 32 30 30 31 33 34 34 34 33 32 33 34 34 34 34 33 32 33 34 34 34 34 34 34 34 34 34 34 34 34 34 33 33 33 32 32 32 32 32 32 32 33 33 33 33 33 32 33 33 33 33 33 33 33 33 33 33 33 33 34 34 35 35 34 37 37 36 37 37 38 38 38
28 26 28 31 33 32 32 31 30 30 31 30 30 30 30 29 28 29 31 34 33 32 33 33 34 34 34 34 34 34 33 34 34 34 34 34 34 34 34 33 33 33 34 33 33 33 33 33 33 33 33 32 33 33 33 33 33 33 33 33 33 33 33 34 33 34 33 33 33 33 33 33 33 33 34 34 34 34 35 35 37 37 37 36 35
28 27 28 30 32 33 33 31 30 30 31 30 30 30 29 30 29 27 27 27 30 32 33 34 34 34 33 34 34 33 33 34 34 34 34 34 34 34 33 33 33 33 33 32 32 32 33 34 34 33 32 32 32 33 33 33 33 33 33 34 34 34 34 35 35 33 33 33 33 33 33 34 33 33 33 34 34 34 34 34 35 34 34 35 34
31 29 29 31 31 32 31 30 29 29 30 30 29 29 29 28 28 28 27 27 26 27 27 29 31 32 31 32 34 33 33 34 34 34 34 34 34 34 33 32 32 32 32 32 31 31 31 32 33 34 33 32 31 32 33 34 34 34 33 33 34 34 34 33 33 34 34 33 33 33 33 33 34 33 33 33 33 33 33 33 34 35 34 34 34
30 28 30 30 30 30 31 31 29 29 29 29 29 29 29 29 28 28 27 28 28 27 27 27 27 31 33 33 34 33 33 33 33 33 33 33 33 33 32 31 31 31 31 31 31 31 31 31 31 31 32 32 31 31 31 32 33 34 34 33 32 33 33 33 32 32 33 33 32 32 32 32 33 32 32 33 33 33 32 33 33 33 33 33 33
30 28 27 28 30 30 31 31 29 29 28 28 28 29 29 29 29 28 27 27 27 27 27 27 28 29 30 29 34 33 33 33 33 33 33 33 33 32 32 32 31 31 31 31 31 31 30 30 30 30 30 31 31 31 30 31 32 32 32 33 33 33 32 32 32 31 31 31 31 32 32 31 31 32 31 31 31 31 32 32 32 32 32 32 32
29 28 27 28 30 31 31 30 28 28 27 28 29 29 28 28 28 28 26 26 27 27 27 27 30 26 26 26 36 31 28 31 32 32 32 32 30 30 31 31 31 31 31 31 31 30 30 30 30 30 29 30 29 29 30 30 30 31 32 31 31 31 31 30 31 31 30 30 30 30 30 30 30 30 30 30 30 31 31 32 32 32 32 32 32
30 29 29 29 29 30 29 28 27 27 27 28 28 27 26 27 27 26 26 26 26 26 26 27 27 27 27 26 27 31 29 28 27 28 29 30 29 28 28 30 30 31 31 30 31 30 30 30 30 30 29 29 29 29 29 29 29 29 30 29 30 30 30 29 30 30 29 29 29 29 29 30 30 30 30 30 30 30 31 31 32 32 32 31 31
29 28 30 30 30 29 28 27 28 27 27 27 27 27 27 27 27 26 26 26 26 26 26 26 27 28 27 27 27 27 27 26 25 26 27 28 29 28 28 28 29 29 30 30 30 30 30 30 30 29 29 29 29 29 29 29 28 28 29 29 28 28 29 29 29 29 29 29 29 29 29 29 29 29 29 29 30 30 30 31 31 32 32 32 32
30 30 30 29 29 29 27 26 25 25 26 26 27 28 28 27 27 26 25 26 25 26 26 27 27 27 28 27 31 29 27 27 27 27 27 27 27 28 28 28 28 29 29 30 30 30 30 30 29 29 29 30 30 30 29 29 29 29 28 29 29 29 28 28 29 28 29 28 29 29 29 29 29 28 28 29 30 30 30 31 31 31 31 31 31
30 29 28 29 28 27 24 24 24 26 25 26 27 28 27 27 27 27 26 26 26 26 26 27 27 27 29 32 32 31 27 26 26 27 28 27 28 28 27 28 28 28 29 28 29 29 29 30 29 29 29 30 30 30 30 30 30 30 29 28 29 29 29 29 29 28 28 27 27 28 28 28 28 27 28 29 28 29 29 30 30 30 30 30 30
28 27 27 28 28 27 25 26 25 24 24 23 24 27 28 27 27 26 26 26 26 26 26 25 27 27 28 30 29 29 26 26 28 27 27 27 27 27 27 26 27 28 28 28 28 28 27 28 29 29 28 29 29 29 30 30 30 30 30 29 29 28 28 28 28 29 29 28 27 27 27 26 26 26 26 26 26 27 28 29 29 29 29 29 29
26 26 28 28 28 28 27 25 24 23 22 24 26 27 28 28 28 27 26 26 25 25 26 27 26 27 27 28 27 27 27 26 26 26 27 26 27 26 27 27 27 27 28 28 28 28 27 28 28 29 28 29 29 28 29 30 30 30 29 29 29 29 28 28 28 28 29 28 28 27 26 26 26 25 25 26 25 24 24 26 27 28 29 28 28
27 26 28 27 26 25 25 25 24 24 26 26 26 26 27 28 27 27 26 26 27 26 26 27 27 27 27 27 27 28 27 27 27 26 26 26 26 26 25 25 25 25 25 28 27 27 26 26 26 26 26 28 28 29 29 28 28 29 28 28 26 27 27 27 25 26 27 28 29 28 27 26 26 25 25 25 26 25 24 25 25 27 28 27 27
27 28 28 27 27 26 25 25 26 25 25 24 24 25 26 27 26 26 26 26 26 27 28 27 27 27 27 26 27 27 27 27 26 26 26 26 26 26 25 24 25 24 24 25 26 25 24 24 24 24 24 23 25 27 28 27 27 27 27 26 23 22 23 24 25 27 28 27 27 26 27 27 26 26 26 26 26 26 24 24 24 25 26 26 26
28 28 28 28 27 25 25 25 25 23 24 24 25 25 26 25 26 26 27 27 26 27 28 28 27 27 28 27 26 27 27 27 27 26 26 27 26 26 25 24 24 24 25 25 24 24 22 24 23 23 24 24 24 25 25 24 23 23 24 23 23 23 22 22 23 24 24 25 25 25 25 25 26 26 26 26 26 26 25 25 25 24 24 26 25
28 27 27 26 26 24 24 25 24 26 25 25 25 26 26 26 26 27 26 25 26 26 26 27 28 28 28 28 28 28 27 27 27 27 26 25 26 25 25 25 24 23 24 24 24 24 23 22 23 22 23 24 25 24 24 24 23 22 22 21 21 21 21 20 21 23 24 25 25 24 21 22 22 24 25 25 23 25 24 24 24 25 24 24 25
28 26 25 25 25 24 23 24 25 25 24 25 26 26 27 26 26 26 26 25 25 26 26 27 28 28 27 28 28 28 27 27 27 27 26 26 25 26 26 25 26 24 24 23 23 23 25 24 24 23 23 24 25 25 23 22 22 21 21 19 19 19 19 20 19 19 21 23 24 25 23 22 21 21 23 22 23 23 24 23 23 24 24 24 24
27 27 26 24 25 25 25 26 25 24 25 25 25 26 26 26 26 26 25 25 25 25 25 27 27 28 28 28 28 28 27 27 28 27 26 26 26 26 25 25 25 24 23 22 23 23 24 23 24 24 23 24 24 23 23 21 21 19 19 19 19 19 18 19 19 19 21 20 22 22 22 22 22 21 19 19 20 21 23 23 23 24 23 23 23
27 26 25 24 24 26 26 25 24 24 23 25 25 25 26 26 26 26 26 24 23 24 26 27 27 27 28 28 28 27 27 27 27 28 27 27 28 27 25 26 25 24 24 23 24 24 23 23 23 23 23 24 23 23 22 20 19 18 19 18 18 18 18 18 19 18 20 21 21 23 24 24 22 23 22 21 21 21 23 22 21 20 20 21 23